Вернуться в каталог

FENGYUN 1C DEB

АктивенLEO
NORAD 37464·DEBRIS·🇨🇳 China

Запущен May 10, 1999 с Taiyuan Satellite Launch Center

Loading…

Ближайшие Пролёты (ближайшие 24 часа)

TLE

УстаревшееSource: Space-Track

Эпоха: Sep 5, 2026, 17:39 UTC

1 37464U 99025EJJ 26248.73551132  .00001217  00000-0  11088-2 0  9999
2 37464 102.7147 250.4923 0448462 251.8413 103.3399 13.48657445645195

Отслеживайте FENGYUN 1C DEB в реальном времени с AllMySat

Download on the App Store